Location: Stuttgart
(48.8069°N, 9.1544°E)
Time: 04:02:12
(UTC+02:00)

ISS - Pass Details

Date: 15 May 2021
Orbit: 417 x 422 km, 51.6° (Epoch: 15 June)

Event Time Altitude Azimuth Distance (km) Brightness Sun altitude
Rises 23:37:03 0° 251° (WSW) 2,361 0.1 -18.4°
Reaches altitude 10° 23:39:09 10° 252° (WSW) 1,500 -0.9 -18.5°
Maximum altitude 23:42:31 83° 340° (NNW) 429 -3.8 -18.7°
Drops below altitude 10° 23:45:55 10° 69° (ENE) 1,508 -1.0 -19.0°
Sets 23:48:01 0° 71° (ENE) 2,375 0.0 -19.1°
